Вернуться в каталог

COSMOS 1750

АктивенНавигацияLEO
NORAD 16760·PAYLOAD·🇷🇺 Russia

Запущен Jun 6, 1986 с Plesetsk Cosmodrome

Loading…

Ближайшие Пролёты (ближайшие 24 часа)

TLE

СвежийSource: Space-Track

Эпоха: Sep 14, 2026, 13:47 UTC

1 16760U 86042C   26257.57432037  .00000003  00000-0  11319-3 0  9994
2 16760  74.0217 337.3550 0038878  83.5600 340.8045 12.56168490846830

Отслеживайте COSMOS 1750 в реальном времени с AllMySat

Download on the App Store